Year,Month,Day,Hour,Minute,Value (Times are PST for windspeed in km/hr)
2007,11,13,00,00,7.00
2007,11,13,00,01,13.20
2007,11,13,00,02,3.50
2007,11,13,00,03,0.90
2007,11,13,00,04,3.20
2007,11,13,00,05,12.10
2007,11,13,00,06,6.60
2007,11,13,00,07,5.10
2007,11,13,00,08,10.00
2007,11,13,00,09,8.00
2007,11,13,00,10,3.90
2007,11,13,00,11,5.90
2007,11,13,00,12,4.70
2007,11,13,00,13,4.30
2007,11,13,00,14,5.80
2007,11,13,00,15,4.50
2007,11,13,00,16,8.20
2007,11,13,00,17,6.40
2007,11,13,00,18,4.10
2007,11,13,00,19,3.90
2007,11,13,00,20,6.90
2007,11,13,00,21,2.20
2007,11,13,00,22,6.20
2007,11,13,00,23,6.90
2007,11,13,00,24,5.10
2007,11,13,00,25,4.20
2007,11,13,00,26,4.60
2007,11,13,00,27,6.40
2007,11,13,00,28,6.90
2007,11,13,00,29,16.70
2007,11,13,00,30,8.40
2007,11,13,00,31,22.10
2007,11,13,00,32,13.60
2007,11,13,00,33,4.50
2007,11,13,00,34,14.20
2007,11,13,00,35,14.30
2007,11,13,00,36,8.40
2007,11,13,00,37,11.80
2007,11,13,00,38,17.20
2007,11,13,00,39,15.00
2007,11,13,00,40,15.70
2007,11,13,00,41,13.40
2007,11,13,00,42,16.70
2007,11,13,00,43,11.40
2007,11,13,00,44,17.10
2007,11,13,00,45,19.10
2007,11,13,00,46,21.00
2007,11,13,00,47,20.00
2007,11,13,00,48,15.90
2007,11,13,00,49,8.70
2007,11,13,00,50,9.00
2007,11,13,00,51,6.80
2007,11,13,00,52,15.70
2007,11,13,00,53,8.80
2007,11,13,00,54,20.50
2007,11,13,00,55,16.10
2007,11,13,00,56,4.60
2007,11,13,00,57,5.30
2007,11,13,00,58,8.70
2007,11,13,00,59,4.10
2007,11,13,01,00,4.20
2007,11,13,01,01,1.90
2007,11,13,01,02,11.60
2007,11,13,01,03,13.50
2007,11,13,01,04,15.20
2007,11,13,01,05,14.80
2007,11,13,01,06,17.20
2007,11,13,01,07,12.90
2007,11,13,01,08,8.90
2007,11,13,01,09,4.50
2007,11,13,01,10,1.60
2007,11,13,01,11,4.70
2007,11,13,01,12,10.90
2007,11,13,01,13,9.20
2007,11,13,01,14,13.60
2007,11,13,01,15,18.40
2007,11,13,01,16,12.00
2007,11,13,01,17,7.60
2007,11,13,01,18,9.00
2007,11,13,01,19,11.00
2007,11,13,01,20,3.30
2007,11,13,01,21,6.60
2007,11,13,01,22,1.00
2007,11,13,01,23,6.50
2007,11,13,01,24,1.80
2007,11,13,01,25,3.20
2007,11,13,01,26,4.70
2007,11,13,01,27,15.50
2007,11,13,01,28,9.30
2007,11,13,01,29,6.50
2007,11,13,01,30,6.30
2007,11,13,01,31,4.50
2007,11,13,01,32,4.20
2007,11,13,01,33,6.10
2007,11,13,01,34,6.40
2007,11,13,01,35,6.90
2007,11,13,01,36,5.80
2007,11,13,01,37,7.60
2007,11,13,01,38,18.50
2007,11,13,01,39,11.70
2007,11,13,01,40,14.20
2007,11,13,01,41,17.80
2007,11,13,01,42,10.40
2007,11,13,01,43,7.10
2007,11,13,01,44,10.60
2007,11,13,01,45,9.30
2007,11,13,01,46,9.80
2007,11,13,01,47,13.90
2007,11,13,01,48,8.50
2007,11,13,01,49,6.40
2007,11,13,01,50,11.60
2007,11,13,01,51,7.50
2007,11,13,01,52,7.20
2007,11,13,01,53,11.40
2007,11,13,01,54,4.40
2007,11,13,01,55,4.20
2007,11,13,01,56,7.10
2007,11,13,01,57,2.70
2007,11,13,01,58,5.70
2007,11,13,01,59,3.10
2007,11,13,02,00,5.50
2007,11,13,02,01,6.10
2007,11,13,02,02,6.10
2007,11,13,02,03,0.70
2007,11,13,02,04,1.90
2007,11,13,02,05,6.00
2007,11,13,02,06,5.90
2007,11,13,02,07,5.30
2007,11,13,02,08,3.10
2007,11,13,02,09,1.40
2007,11,13,02,10,2.60
2007,11,13,02,11,9.00
2007,11,13,02,12,3.50
2007,11,13,02,13,2.90
2007,11,13,02,14,0.80
2007,11,13,02,15,1.20
2007,11,13,02,16,8.30
2007,11,13,02,17,8.30
2007,11,13,02,18,5.10
2007,11,13,02,19,3.10
2007,11,13,02,20,5.00
2007,11,13,02,21,8.90
2007,11,13,02,22,6.80
2007,11,13,02,23,4.70
2007,11,13,02,24,5.20
2007,11,13,02,25,0.60
2007,11,13,02,26,0.50
2007,11,13,02,27,4.70
2007,11,13,02,28,4.70
2007,11,13,02,29,1.70
2007,11,13,02,30,1.70
2007,11,13,02,31,2.70
2007,11,13,02,32,3.90
2007,11,13,02,33,5.30
2007,11,13,02,34,3.90
2007,11,13,02,35,5.20
2007,11,13,02,36,5.70
2007,11,13,02,37,3.20
2007,11,13,02,38,2.50
2007,11,13,02,39,4.30
2007,11,13,02,40,7.60
2007,11,13,02,41,5.50
2007,11,13,02,42,1.50
2007,11,13,02,43,1.20
2007,11,13,02,44,3.10
2007,11,13,02,45,0.60
2007,11,13,02,46,0.30
2007,11,13,02,47,0.60
2007,11,13,02,48,0.00
2007,11,13,02,49,2.00
2007,11,13,02,50,4.70
2007,11,13,02,51,3.90
2007,11,13,02,52,2.10
2007,11,13,02,53,0.70
2007,11,13,02,54,1.30
2007,11,13,02,55,0.20
2007,11,13,02,56,0.00
2007,11,13,02,57,0.10
2007,11,13,02,58,0.00
2007,11,13,02,59,0.00
2007,11,13,03,00,0.00
2007,11,13,03,01,0.00
2007,11,13,03,02,0.00
2007,11,13,03,03,0.00
2007,11,13,03,04,1.80
2007,11,13,03,05,0.30
2007,11,13,03,06,0.00
2007,11,13,03,07,0.60
2007,11,13,03,08,1.40
2007,11,13,03,09,0.70
2007,11,13,03,10,0.10
2007,11,13,03,11,0.20
2007,11,13,03,12,0.30
2007,11,13,03,13,0.00
2007,11,13,03,14,0.00
2007,11,13,03,15,0.20
2007,11,13,03,16,0.10
2007,11,13,03,17,0.10
2007,11,13,03,18,0.00
2007,11,13,03,19,0.20
2007,11,13,03,20,0.20
2007,11,13,03,21,1.50
2007,11,13,03,22,0.70
2007,11,13,03,23,3.40
2007,11,13,03,24,2.70
2007,11,13,03,25,0.20
2007,11,13,03,26,4.10
2007,11,13,03,27,2.30
2007,11,13,03,28,1.00
2007,11,13,03,29,2.90
2007,11,13,03,30,7.00
2007,11,13,03,31,7.10
2007,11,13,03,32,7.70
2007,11,13,03,33,7.20
2007,11,13,03,34,2.40
2007,11,13,03,35,1.40
2007,11,13,03,36,1.50
2007,11,13,03,37,0.10
2007,11,13,03,38,0.30
2007,11,13,03,39,0.20
2007,11,13,03,40,2.70
2007,11,13,03,41,1.40
2007,11,13,03,42,0.00
2007,11,13,03,43,0.10
2007,11,13,03,44,3.00
2007,11,13,03,45,0.50
2007,11,13,03,46,0.00
2007,11,13,03,47,0.00
2007,11,13,03,48,0.00
2007,11,13,03,49,0.00
2007,11,13,03,50,0.20
2007,11,13,03,51,0.10
2007,11,13,03,52,0.00
2007,11,13,03,53,0.00
2007,11,13,03,54,0.00
2007,11,13,03,55,2.50
2007,11,13,03,56,2.30
2007,11,13,03,57,0.10
2007,11,13,03,58,0.00
2007,11,13,03,59,1.80
2007,11,13,04,00,1.40
2007,11,13,04,01,0.00
2007,11,13,04,02,0.00
2007,11,13,04,03,0.00
2007,11,13,04,04,1.20
2007,11,13,04,05,1.30
2007,11,13,04,06,1.70
2007,11,13,04,07,0.20
2007,11,13,04,08,0.90
2007,11,13,04,09,3.60
2007,11,13,04,10,5.00
2007,11,13,04,11,1.00
2007,11,13,04,12,0.00
2007,11,13,04,13,0.10
2007,11,13,04,14,0.10
2007,11,13,04,15,0.00
2007,11,13,04,16,1.40
2007,11,13,04,17,2.30
2007,11,13,04,18,3.80
2007,11,13,04,19,4.00
2007,11,13,04,20,2.80
2007,11,13,04,21,1.50
2007,11,13,04,22,0.60
2007,11,13,04,23,0.50
2007,11,13,04,24,0.30
2007,11,13,04,25,0.00
2007,11,13,04,26,0.60
2007,11,13,04,27,4.50
2007,11,13,04,28,1.90
2007,11,13,04,29,1.80
2007,11,13,04,30,0.80
2007,11,13,04,31,0.60
2007,11,13,04,32,0.20
2007,11,13,04,33,0.00
2007,11,13,04,34,1.20
2007,11,13,04,35,1.30
2007,11,13,04,36,2.10
2007,11,13,04,37,3.10
2007,11,13,04,38,1.50
2007,11,13,04,39,0.50
2007,11,13,04,40,0.60
2007,11,13,04,41,0.00
2007,11,13,04,42,1.20
2007,11,13,04,43,3.30
2007,11,13,04,44,2.90
2007,11,13,04,45,4.50
2007,11,13,04,46,2.00
2007,11,13,04,47,0.10
2007,11,13,04,48,3.10
2007,11,13,04,49,4.00
2007,11,13,04,50,3.40
2007,11,13,04,51,1.30
2007,11,13,04,52,0.10
2007,11,13,04,53,0.10
2007,11,13,04,54,0.00
2007,11,13,04,55,1.10
2007,11,13,04,56,2.90
2007,11,13,04,57,3.80
2007,11,13,04,58,2.70
2007,11,13,04,59,1.60
2007,11,13,05,00,1.10
2007,11,13,05,01,2.30
2007,11,13,05,02,1.20
2007,11,13,05,03,0.20
2007,11,13,05,04,1.20
2007,11,13,05,05,1.50
2007,11,13,05,06,1.70
2007,11,13,05,07,4.40
2007,11,13,05,08,5.60
2007,11,13,05,09,2.30
2007,11,13,05,10,1.70
2007,11,13,05,11,1.30
2007,11,13,05,12,0.00
2007,11,13,05,13,0.40
2007,11,13,05,14,2.60
2007,11,13,05,15,3.20
2007,11,13,05,16,2.70
2007,11,13,05,17,1.90
2007,11,13,05,18,1.10
2007,11,13,05,19,0.00
2007,11,13,05,20,0.80
2007,11,13,05,21,3.00
2007,11,13,05,22,0.90
2007,11,13,05,23,0.40
2007,11,13,05,24,1.10
2007,11,13,05,25,0.20
2007,11,13,05,26,0.20
2007,11,13,05,27,0.00
2007,11,13,05,28,0.00
2007,11,13,05,29,1.10
2007,11,13,05,30,0.20
2007,11,13,05,31,2.20
2007,11,13,05,32,2.10
2007,11,13,05,33,0.90
2007,11,13,05,34,3.20
2007,11,13,05,35,4.10
2007,11,13,05,36,1.40
2007,11,13,05,37,2.40
2007,11,13,05,38,3.70
2007,11,13,05,39,3.50
2007,11,13,05,40,1.90
2007,11,13,05,41,2.60
2007,11,13,05,42,2.00
2007,11,13,05,43,3.40
2007,11,13,05,44,6.80
2007,11,13,05,45,5.60
2007,11,13,05,46,4.10
2007,11,13,05,47,0.20
2007,11,13,05,48,0.00
2007,11,13,05,49,1.90
2007,11,13,05,50,4.10
2007,11,13,05,51,3.50
2007,11,13,05,52,1.90
2007,11,13,05,53,1.60
2007,11,13,05,54,2.30
2007,11,13,05,55,0.20
2007,11,13,05,56,3.60
2007,11,13,05,57,4.70
2007,11,13,05,58,3.50
2007,11,13,05,59,0.90
2007,11,13,06,00,0.00
2007,11,13,06,01,0.00
2007,11,13,06,02,0.00
2007,11,13,06,03,0.00
2007,11,13,06,04,2.10
2007,11,13,06,05,4.30
2007,11,13,06,06,2.60
2007,11,13,06,07,1.80
2007,11,13,06,08,2.60
2007,11,13,06,09,2.40
2007,11,13,06,10,0.50
2007,11,13,06,11,1.30
2007,11,13,06,12,0.30
2007,11,13,06,13,0.00
2007,11,13,06,14,0.00
2007,11,13,06,15,0.00
2007,11,13,06,16,0.00
2007,11,13,06,17,0.00
2007,11,13,06,18,0.00
2007,11,13,06,19,0.00
2007,11,13,06,20,1.90
2007,11,13,06,21,2.70
2007,11,13,06,22,3.00
2007,11,13,06,23,3.20
2007,11,13,06,24,2.00
2007,11,13,06,25,2.70
2007,11,13,06,26,4.70
2007,11,13,06,27,4.50
2007,11,13,06,28,3.70
2007,11,13,06,29,2.80
2007,11,13,06,30,3.80
2007,11,13,06,31,0.40
2007,11,13,06,32,0.70
2007,11,13,06,33,0.20
2007,11,13,06,34,1.20
2007,11,13,06,35,0.50
2007,11,13,06,36,2.50
2007,11,13,06,37,3.90
2007,11,13,06,38,2.80
2007,11,13,06,39,2.50
2007,11,13,06,40,1.60
2007,11,13,06,41,1.20
2007,11,13,06,42,0.60
2007,11,13,06,43,2.40
2007,11,13,06,44,3.70
2007,11,13,06,45,3.60
2007,11,13,06,46,3.50
2007,11,13,06,47,1.80
2007,11,13,06,48,4.20
2007,11,13,06,49,4.30
2007,11,13,06,50,1.40
2007,11,13,06,51,0.30
2007,11,13,06,52,4.60
2007,11,13,06,53,4.20
2007,11,13,06,54,1.60
2007,11,13,06,55,1.80
2007,11,13,06,56,0.90
2007,11,13,06,57,2.90
2007,11,13,06,58,3.00
2007,11,13,06,59,4.40
2007,11,13,07,00,2.70
2007,11,13,07,01,2.60
2007,11,13,07,02,2.10
2007,11,13,07,03,2.50
2007,11,13,07,04,2.50
2007,11,13,07,05,0.30
2007,11,13,07,06,1.10
2007,11,13,07,07,0.80
2007,11,13,07,08,2.10
2007,11,13,07,09,1.90
2007,11,13,07,10,4.10
2007,11,13,07,11,3.80
2007,11,13,07,12,1.90
2007,11,13,07,13,0.20
2007,11,13,07,14,0.10
2007,11,13,07,15,0.20
2007,11,13,07,16,0.20
2007,11,13,07,17,0.00
2007,11,13,07,18,0.10
2007,11,13,07,19,0.00
2007,11,13,07,20,0.00
2007,11,13,07,21,0.00
2007,11,13,07,22,0.40
2007,11,13,07,23,1.90
2007,11,13,07,24,2.30
2007,11,13,07,25,2.50
2007,11,13,07,26,4.40
2007,11,13,07,27,4.70
2007,11,13,07,28,3.30
2007,11,13,07,29,4.00
2007,11,13,07,30,4.10
2007,11,13,07,31,5.50
2007,11,13,07,32,4.20
2007,11,13,07,33,1.00
2007,11,13,07,34,1.20
2007,11,13,07,35,2.40
2007,11,13,07,36,1.80
2007,11,13,07,37,3.00
2007,11,13,07,38,1.30
2007,11,13,07,39,1.00
2007,11,13,07,40,3.00
2007,11,13,07,41,5.60
2007,11,13,07,42,8.50
2007,11,13,07,43,9.50
2007,11,13,07,44,10.20
2007,11,13,07,45,6.60
2007,11,13,07,46,2.10
2007,11,13,07,47,0.10
2007,11,13,07,48,0.90
2007,11,13,07,49,6.60
2007,11,13,07,50,5.20
2007,11,13,07,51,4.30
2007,11,13,07,52,1.70
2007,11,13,07,53,4.80
2007,11,13,07,54,0.60
2007,11,13,07,55,0.20
2007,11,13,07,56,1.40
2007,11,13,07,57,1.80
2007,11,13,07,58,1.70
2007,11,13,07,59,2.30
2007,11,13,08,00,6.20
2007,11,13,08,01,9.60
2007,11,13,08,02,8.00
2007,11,13,08,03,5.30
2007,11,13,08,04,2.80
2007,11,13,08,05,4.70
2007,11,13,08,06,5.80
2007,11,13,08,07,5.70
2007,11,13,08,08,5.90
2007,11,13,08,09,6.30
2007,11,13,08,10,7.20
2007,11,13,08,11,6.50
2007,11,13,08,12,5.00
2007,11,13,08,13,5.90
2007,11,13,08,14,7.30
2007,11,13,08,15,8.70
2007,11,13,08,16,5.70
2007,11,13,08,17,6.40
2007,11,13,08,18,6.00
2007,11,13,08,19,5.90
2007,11,13,08,20,4.90
2007,11,13,08,21,2.70
2007,11,13,08,22,5.60
2007,11,13,08,23,5.40
2007,11,13,08,24,4.80
2007,11,13,08,25,5.10
2007,11,13,08,26,6.40
2007,11,13,08,27,6.50
2007,11,13,08,28,3.60
2007,11,13,08,29,5.50
2007,11,13,08,30,5.70
2007,11,13,08,31,5.90
2007,11,13,08,32,2.00
2007,11,13,08,33,1.40
2007,11,13,08,34,4.60
2007,11,13,08,35,2.50
2007,11,13,08,36,4.70
2007,11,13,08,37,3.60
2007,11,13,08,38,4.30
2007,11,13,08,39,1.70
2007,11,13,08,40,0.70
2007,11,13,08,41,0.90
2007,11,13,08,42,0.00
2007,11,13,08,43,1.40
2007,11,13,08,44,6.70
2007,11,13,08,45,3.20
2007,11,13,08,46,0.20
2007,11,13,08,47,0.00
2007,11,13,08,48,3.50
2007,11,13,08,49,1.40
2007,11,13,08,50,0.00
2007,11,13,08,51,1.70
2007,11,13,08,52,5.10
2007,11,13,08,53,1.00
2007,11,13,08,54,0.40
2007,11,13,08,55,1.50
2007,11,13,08,56,1.20
2007,11,13,08,57,0.50
2007,11,13,08,58,0.90
2007,11,13,08,59,1.30
2007,11,13,09,00,2.10
2007,11,13,09,01,1.00
2007,11,13,09,02,0.90
2007,11,13,09,03,1.50
2007,11,13,09,04,5.60
2007,11,13,09,05,6.20
2007,11,13,09,06,12.60
2007,11,13,09,07,9.10
2007,11,13,09,08,7.00
2007,11,13,09,09,5.70
2007,11,13,09,10,13.60
2007,11,13,09,11,11.90
2007,11,13,09,12,7.90
2007,11,13,09,13,11.00
2007,11,13,09,14,8.50
2007,11,13,09,15,11.30
2007,11,13,09,16,8.30
2007,11,13,09,17,9.80
2007,11,13,09,18,4.10
2007,11,13,09,19,3.90
2007,11,13,09,20,13.80
2007,11,13,09,21,8.10
2007,11,13,09,22,9.60
2007,11,13,09,23,8.50
2007,11,13,09,24,6.40
2007,11,13,09,25,4.70
2007,11,13,09,26,9.70
2007,11,13,09,27,8.20
2007,11,13,09,28,7.50
2007,11,13,09,29,5.10
2007,11,13,09,30,5.90
2007,11,13,09,31,11.50
2007,11,13,09,32,12.40
2007,11,13,09,33,10.20
2007,11,13,09,34,5.70
2007,11,13,09,35,7.40
2007,11,13,09,36,3.20
2007,11,13,09,37,6.30
2007,11,13,09,38,2.90
2007,11,13,09,39,7.30
2007,11,13,09,40,7.20
2007,11,13,09,41,3.70
2007,11,13,09,42,7.30
2007,11,13,09,43,6.90
2007,11,13,09,44,6.00
2007,11,13,09,45,3.00
2007,11,13,09,46,4.00
2007,11,13,09,47,4.30
2007,11,13,09,48,0.60
2007,11,13,09,49,2.90
2007,11,13,09,50,5.10
2007,11,13,09,51,4.70
2007,11,13,09,52,8.10
2007,11,13,09,53,6.00
2007,11,13,09,54,5.80
2007,11,13,09,55,0.20
2007,11,13,09,56,0.90
2007,11,13,09,57,1.40
2007,11,13,09,58,2.90
2007,11,13,09,59,3.10
2007,11,13,10,00,3.40
2007,11,13,10,01,5.30
2007,11,13,10,02,4.70
2007,11,13,10,03,3.40
2007,11,13,10,04,6.40
2007,11,13,10,05,7.50
2007,11,13,10,06,4.90
2007,11,13,10,07,1.10
2007,11,13,10,08,0.10
2007,11,13,10,09,0.70
2007,11,13,10,10,0.00
2007,11,13,10,11,2.40
2007,11,13,10,12,5.40
2007,11,13,10,13,6.10
2007,11,13,10,14,3.70
2007,11,13,10,15,2.20
2007,11,13,10,16,5.20
2007,11,13,10,17,5.60
2007,11,13,10,18,4.30
2007,11,13,10,19,3.00
2007,11,13,10,20,1.50
2007,11,13,10,21,1.70
2007,11,13,10,22,4.20
2007,11,13,10,23,1.40
2007,11,13,10,24,2.80
2007,11,13,10,25,6.00
2007,11,13,10,26,4.60
2007,11,13,10,27,6.90
2007,11,13,10,28,4.40
2007,11,13,10,29,3.30
2007,11,13,10,30,1.00
2007,11,13,10,31,0.50
2007,11,13,10,32,0.00
2007,11,13,10,33,0.10
2007,11,13,10,34,0.00
2007,11,13,10,35,0.10
2007,11,13,10,36,0.10
2007,11,13,10,37,0.00
2007,11,13,10,38,0.00
2007,11,13,10,39,0.80
2007,11,13,10,40,3.60
2007,11,13,10,41,2.70
2007,11,13,10,42,3.40
2007,11,13,10,43,1.80
2007,11,13,10,44,4.20
2007,11,13,10,45,1.50
2007,11,13,10,46,0.60
2007,11,13,10,47,2.40
2007,11,13,10,48,2.20
2007,11,13,10,49,2.20
2007,11,13,10,50,0.60
2007,11,13,10,51,0.30
2007,11,13,10,52,2.70
2007,11,13,10,53,2.10
2007,11,13,10,54,1.80
2007,11,13,10,55,1.60
2007,11,13,10,56,0.70
2007,11,13,10,57,0.80
2007,11,13,10,58,2.30
2007,11,13,10,59,3.20
2007,11,13,11,00,3.70
2007,11,13,11,01,2.60
2007,11,13,11,02,2.60
2007,11,13,11,03,4.60
2007,11,13,11,04,5.50
2007,11,13,11,05,4.10
2007,11,13,11,06,2.70
2007,11,13,11,07,0.90
2007,11,13,11,08,1.40
2007,11,13,11,09,3.40
2007,11,13,11,10,4.00
2007,11,13,11,11,3.30
2007,11,13,11,12,2.30
2007,11,13,11,13,3.50
2007,11,13,11,14,9.20
2007,11,13,11,15,8.80
2007,11,13,11,16,8.70
2007,11,13,11,17,4.60
2007,11,13,11,18,2.70
2007,11,13,11,19,1.40
2007,11,13,11,20,3.50
2007,11,13,11,21,4.90
2007,11,13,11,22,4.70
2007,11,13,11,23,7.90
2007,11,13,11,24,6.40
2007,11,13,11,25,4.80
2007,11,13,11,26,6.70
2007,11,13,11,27,8.10
2007,11,13,11,28,5.30
2007,11,13,11,29,3.60
2007,11,13,11,30,3.10
2007,11,13,11,31,1.00
2007,11,13,11,32,4.00
2007,11,13,11,33,4.10
2007,11,13,11,34,1.50
2007,11,13,11,35,2.00
2007,11,13,11,36,3.00
2007,11,13,11,37,5.60
2007,11,13,11,38,4.50
2007,11,13,11,39,3.70
2007,11,13,11,40,1.00
2007,11,13,11,41,3.00
2007,11,13,11,42,3.20
2007,11,13,11,43,5.60
2007,11,13,11,44,4.00
2007,11,13,11,45,0.60
2007,11,13,11,46,2.00
2007,11,13,11,47,3.10
2007,11,13,11,48,4.20
2007,11,13,11,49,5.20
2007,11,13,11,50,1.60
2007,11,13,11,51,0.60
2007,11,13,11,52,4.50
2007,11,13,11,53,4.70
2007,11,13,11,54,5.40
2007,11,13,11,55,4.30
2007,11,13,11,56,2.90
2007,11,13,11,57,0.70
2007,11,13,11,58,4.20
2007,11,13,11,59,4.20
2007,11,13,12,00,2.10
2007,11,13,12,01,5.50
2007,11,13,12,02,5.00
2007,11,13,12,03,4.30
2007,11,13,12,04,0.20
2007,11,13,12,05,0.50
2007,11,13,12,06,0.30
2007,11,13,12,07,0.60
2007,11,13,12,08,0.10
2007,11,13,12,09,0.10
2007,11,13,12,10,0.00
2007,11,13,12,11,0.00
2007,11,13,12,12,1.00
2007,11,13,12,13,0.20
2007,11,13,12,14,0.20
2007,11,13,12,15,1.00
2007,11,13,12,16,1.40
2007,11,13,12,17,1.00
2007,11,13,12,18,0.00
2007,11,13,12,19,0.00
2007,11,13,12,20,0.00
2007,11,13,12,21,0.90
2007,11,13,12,22,0.40
2007,11,13,12,23,0.40
2007,11,13,12,24,0.20
2007,11,13,12,25,1.10
2007,11,13,12,26,1.90
2007,11,13,12,27,0.30
2007,11,13,12,28,0.10
2007,11,13,12,29,0.00
2007,11,13,12,30,0.60
2007,11,13,12,31,0.20
2007,11,13,12,32,0.20
2007,11,13,12,33,0.30
2007,11,13,12,34,0.00
2007,11,13,12,35,0.20
2007,11,13,12,36,1.10
2007,11,13,12,37,0.10
2007,11,13,12,38,1.80
2007,11,13,12,39,2.30
2007,11,13,12,40,1.70
2007,11,13,12,41,3.00
2007,11,13,12,42,2.20
2007,11,13,12,43,1.20
2007,11,13,12,44,3.70
2007,11,13,12,45,3.90
2007,11,13,12,46,5.10
2007,11,13,12,47,6.40
2007,11,13,12,48,3.70
2007,11,13,12,49,1.90
2007,11,13,12,50,3.80
2007,11,13,12,51,3.20
2007,11,13,12,52,3.80
2007,11,13,12,53,4.80
2007,11,13,12,54,5.10
2007,11,13,12,55,4.90
2007,11,13,12,56,5.20
2007,11,13,12,57,5.10
2007,11,13,12,58,4.50
2007,11,13,12,59,3.00
2007,11,13,13,00,5.10
2007,11,13,13,01,3.80
2007,11,13,13,02,2.70
2007,11,13,13,03,3.80
2007,11,13,13,04,5.00
2007,11,13,13,05,6.40
2007,11,13,13,06,7.00
2007,11,13,13,07,4.70
2007,11,13,13,08,4.10
2007,11,13,13,09,1.50
2007,11,13,13,10,2.00
2007,11,13,13,11,1.90
2007,11,13,13,12,2.30
2007,11,13,13,13,1.60
2007,11,13,13,14,1.10
2007,11,13,13,15,2.70
2007,11,13,13,16,4.50
2007,11,13,13,17,1.90
2007,11,13,13,18,2.10
2007,11,13,13,19,4.40
2007,11,13,13,20,5.00
2007,11,13,13,21,4.10
2007,11,13,13,22,1.90
2007,11,13,13,23,1.80
2007,11,13,13,24,3.90
2007,11,13,13,25,3.70
2007,11,13,13,26,3.90
2007,11,13,13,27,2.80
2007,11,13,13,28,2.50
2007,11,13,13,29,3.10
2007,11,13,13,30,3.60
2007,11,13,13,31,2.10
2007,11,13,13,32,3.40
2007,11,13,13,33,1.50
2007,11,13,13,34,2.20
2007,11,13,13,35,2.80
2007,11,13,13,36,0.60
2007,11,13,13,37,1.60
2007,11,13,13,38,0.20
2007,11,13,13,39,0.20
2007,11,13,13,40,1.90
2007,11,13,13,41,0.70
2007,11,13,13,42,0.20
2007,11,13,13,43,0.30
2007,11,13,13,44,0.30
2007,11,13,13,45,0.00
2007,11,13,13,46,0.10
2007,11,13,13,47,1.10
2007,11,13,13,48,0.00
2007,11,13,13,49,0.30
2007,11,13,13,50,0.40
2007,11,13,13,51,1.10
2007,11,13,13,52,0.70
2007,11,13,13,53,0.20
2007,11,13,13,54,0.00
2007,11,13,13,55,0.60
2007,11,13,13,56,0.00
2007,11,13,13,57,0.00
2007,11,13,13,58,0.00
2007,11,13,13,59,0.00
2007,11,13,14,00,0.00
2007,11,13,14,01,0.00
2007,11,13,14,02,0.10
2007,11,13,14,03,0.30
2007,11,13,14,04,0.20
2007,11,13,14,05,0.30
2007,11,13,14,06,0.10
2007,11,13,14,07,0.10
2007,11,13,14,08,0.20
2007,11,13,14,09,0.10
2007,11,13,14,10,0.10
2007,11,13,14,11,0.00
2007,11,13,14,12,0.00
2007,11,13,14,13,0.00
2007,11,13,14,14,0.00
2007,11,13,14,15,0.00
2007,11,13,14,16,0.40
2007,11,13,14,17,0.70
2007,11,13,14,18,0.20
2007,11,13,14,19,0.70
2007,11,13,14,20,0.10
2007,11,13,14,21,0.50
2007,11,13,14,22,0.10
2007,11,13,14,23,0.00
2007,11,13,14,24,0.00
2007,11,13,14,25,0.00
2007,11,13,14,26,0.00
2007,11,13,14,27,0.10
2007,11,13,14,28,0.50
2007,11,13,14,29,0.20
2007,11,13,14,30,0.10
2007,11,13,14,31,0.10
2007,11,13,14,32,0.00
2007,11,13,14,33,0.00
2007,11,13,14,34,0.00
2007,11,13,14,35,0.00
2007,11,13,14,36,0.00
2007,11,13,14,37,0.00
2007,11,13,14,38,0.00
2007,11,13,14,39,0.00
2007,11,13,14,40,0.00
2007,11,13,14,41,0.00
2007,11,13,14,42,0.00
2007,11,13,14,43,0.20
2007,11,13,14,44,1.20
2007,11,13,14,45,0.40
2007,11,13,14,46,0.20
2007,11,13,14,47,0.10
2007,11,13,14,48,0.20
2007,11,13,14,49,0.20
2007,11,13,14,50,0.20
2007,11,13,14,51,0.10
2007,11,13,14,52,0.10
2007,11,13,14,53,1.30
2007,11,13,14,54,0.60
2007,11,13,14,55,0.20
2007,11,13,14,56,1.90
2007,11,13,14,57,2.70
2007,11,13,14,58,1.40
2007,11,13,14,59,2.40
2007,11,13,15,00,0.50
2007,11,13,15,01,2.40
2007,11,13,15,02,2.30
2007,11,13,15,03,1.60
2007,11,13,15,04,1.40
2007,11,13,15,05,0.70
2007,11,13,15,06,0.40
2007,11,13,15,07,0.00
2007,11,13,15,08,0.20
2007,11,13,15,09,0.80
2007,11,13,15,10,0.40
2007,11,13,15,11,0.60
2007,11,13,15,12,0.10
2007,11,13,15,13,0.40
2007,11,13,15,14,0.50
2007,11,13,15,15,0.40
2007,11,13,15,16,0.10
2007,11,13,15,17,0.10
2007,11,13,15,18,0.10
2007,11,13,15,19,0.00
2007,11,13,15,20,0.00
2007,11,13,15,21,0.00
2007,11,13,15,22,0.20
2007,11,13,15,23,0.20
2007,11,13,15,24,0.70
2007,11,13,15,25,0.30
2007,11,13,15,26,0.00
2007,11,13,15,27,0.50
2007,11,13,15,28,1.50
2007,11,13,15,29,0.30
2007,11,13,15,30,0.60
2007,11,13,15,31,0.10
2007,11,13,15,32,0.20
2007,11,13,15,33,0.00
2007,11,13,15,34,0.10
2007,11,13,15,35,0.10
2007,11,13,15,36,0.00
2007,11,13,15,37,0.00
2007,11,13,15,38,0.10
2007,11,13,15,39,0.00
2007,11,13,15,40,0.00
2007,11,13,15,41,0.00
2007,11,13,15,42,0.20
2007,11,13,15,43,0.00
2007,11,13,15,44,1.00
2007,11,13,15,45,0.80
2007,11,13,15,46,1.50
2007,11,13,15,47,1.40
2007,11,13,15,48,1.10
2007,11,13,15,49,0.40
2007,11,13,15,50,0.70
2007,11,13,15,51,0.50
2007,11,13,15,52,0.70
2007,11,13,15,53,0.00
2007,11,13,15,54,0.60
2007,11,13,15,55,0.50
2007,11,13,15,56,1.20
2007,11,13,15,57,0.80
2007,11,13,15,58,0.30
2007,11,13,15,59,1.50
2007,11,13,16,00,2.70
2007,11,13,16,01,2.00
2007,11,13,16,02,1.40
2007,11,13,16,03,1.90
2007,11,13,16,04,2.30
2007,11,13,16,05,2.10
2007,11,13,16,06,1.10
2007,11,13,16,07,1.80
2007,11,13,16,08,1.40
2007,11,13,16,09,1.50
2007,11,13,16,10,1.00
2007,11,13,16,11,3.10
2007,11,13,16,12,2.10
2007,11,13,16,13,2.30
2007,11,13,16,14,1.40
2007,11,13,16,15,1.50
2007,11,13,16,16,1.20
2007,11,13,16,17,1.70
2007,11,13,16,18,2.00
2007,11,13,16,19,0.60
2007,11,13,16,20,1.00
2007,11,13,16,21,0.90
2007,11,13,16,22,1.50
2007,11,13,16,23,1.80
2007,11,13,16,24,2.50
2007,11,13,16,25,1.90
2007,11,13,16,26,1.80
2007,11,13,16,27,0.80
2007,11,13,16,28,0.20
2007,11,13,16,29,1.30
2007,11,13,16,30,2.00
2007,11,13,16,31,2.60
2007,11,13,16,32,2.20
2007,11,13,16,33,2.60
2007,11,13,16,34,2.50
2007,11,13,16,35,2.30
2007,11,13,16,36,2.30
2007,11,13,16,37,2.00
2007,11,13,16,38,2.70
2007,11,13,16,39,2.60
2007,11,13,16,40,2.30
2007,11,13,16,41,2.80
2007,11,13,16,42,2.00
2007,11,13,16,43,0.90
2007,11,13,16,44,0.40
2007,11,13,16,45,0.20
2007,11,13,16,46,0.20
2007,11,13,16,47,0.40
2007,11,13,16,48,1.20
2007,11,13,16,49,0.00
2007,11,13,16,50,0.80
2007,11,13,16,51,0.70
2007,11,13,16,52,0.30
2007,11,13,16,53,1.90
2007,11,13,16,54,1.30
2007,11,13,16,55,1.50
2007,11,13,16,56,1.30
2007,11,13,16,57,1.70
2007,11,13,16,58,1.90
2007,11,13,16,59,1.10
2007,11,13,17,00,2.40
2007,11,13,17,01,2.10
2007,11,13,17,02,3.50
2007,11,13,17,03,2.20
2007,11,13,17,04,3.40
2007,11,13,17,05,2.20
2007,11,13,17,06,3.00
2007,11,13,17,07,2.90
2007,11,13,17,08,2.30
2007,11,13,17,09,2.50
2007,11,13,17,10,2.00
2007,11,13,17,11,2.20
2007,11,13,17,12,2.40
2007,11,13,17,13,2.30
2007,11,13,17,14,2.40
2007,11,13,17,15,3.00
2007,11,13,17,16,2.60
2007,11,13,17,17,1.50
2007,11,13,17,18,1.90
2007,11,13,17,19,0.80
2007,11,13,17,20,0.20
2007,11,13,17,21,0.00
2007,11,13,17,22,0.00
2007,11,13,17,23,0.00
2007,11,13,17,24,0.00
2007,11,13,17,25,0.00
2007,11,13,17,26,0.00
2007,11,13,17,27,0.00
2007,11,13,17,28,0.10
2007,11,13,17,29,0.00
2007,11,13,17,30,0.70
2007,11,13,17,31,1.10
2007,11,13,17,32,1.80
2007,11,13,17,33,2.00
2007,11,13,17,34,2.30
2007,11,13,17,35,0.80
2007,11,13,17,36,1.60
2007,11,13,17,37,1.80
2007,11,13,17,38,0.80
2007,11,13,17,39,1.90
2007,11,13,17,40,1.70
2007,11,13,17,41,1.70
2007,11,13,17,42,1.10
2007,11,13,17,43,0.60
2007,11,13,17,44,2.10
2007,11,13,17,45,0.50
2007,11,13,17,46,0.50
2007,11,13,17,47,1.30
2007,11,13,17,48,2.20
2007,11,13,17,49,3.90
2007,11,13,17,50,3.40
2007,11,13,17,51,3.60
2007,11,13,17,52,3.90
2007,11,13,17,53,3.90
2007,11,13,17,54,4.10
2007,11,13,17,55,4.30
2007,11,13,17,56,4.10
2007,11,13,17,57,2.90
2007,11,13,17,58,3.90
2007,11,13,17,59,3.00
2007,11,13,18,00,2.90
2007,11,13,18,01,3.70
2007,11,13,18,02,3.10
2007,11,13,18,03,2.90
2007,11,13,18,04,3.20